Regional Weather Roundup
Issued by NWS Midland/Odessa, TX

Home | Current Version | Previous Version | Text Only | Print | Product List | Glossary On
Versions: 1 2 3 4 5 6 7 8 9 10 11 12 13 14 15 16 17 18 19 20 21 22 23 24 25 26 27 28 29 30 31 32 33 34 35 36 37 38 39 40 41 42 43 44 45 46 47 48 49 50
000
ASUS44 KMAF 242010
RWRMAF
MIDLAND AREA WEATHER ROUNDUP
NATIONAL WEATHER SERVICE MIDLAND TX
300 PM CDT THU MAY 24 2018

...IN SOUTHWEST TEXAS AND SOUTHEAST NEW MEXICO...

CITY           SKY/WX    TMP DP  RH WIND       PRES   REMARKS
ALPINE         SUNNY     85  61  43 NE8G17    30.21F
ANDREWS        FAIR      88  58  35 S10       30.10F
ARTESIA        SUNNY     86  55  35 S8G15     30.09F
BIG SPRING     MOSUNNY   86  61  41 S13       30.10F
CARLSBAD       SUNNY     86  56  35 VRB5      30.07F
DRYDEN           N/A     93  62  35 E10G18    30.01F
FORT STOCKTON  SUNNY     87  58  37 E9        30.08F
GUAD PASS      PTSUNNY   85  54  34 E12       30.21F
HOBBS          SUNNY     86  55  35 SE9       30.11F
LAMESA         MOCLDY    88  61  40 S16G23    30.09F
MARFA          SUNNY     86  52  30 MISG      30.18F
MIDLAND AIRPK    N/A     94  57  28 S12       30.08F
MIDLAND INTL   SUNNY     91  60  35 S16       30.07F
ODESSA         MOSUNNY   90  58  33 S12       30.09F
PECOS          SUNNY     89  55  30 CALM      30.05F
PRESIDIO       FAIR      93  55  27 SE9       30.04F
SEMINOLE       SUNNY     87  56  35 S10G18    30.11F
SNYDER         MOSUNNY   87  63  45 S7        30.08F
WINK           NOT AVBL
$$
...OTHER STATIONS IN TEXAS...

CITY           SKY/WX    TMP DP  RH WIND       PRES   REMARKS
ABILENE        MOSUNNY   88  62  41 SE13      30.04F
AMARILLO       MOSUNNY   88  53  30 SW15G23   30.08F
AUSTIN         PTSUNNY   88  69  53 S7        30.02F
BROWNSVILLE    FAIR      93  75  55 E12       29.98F HX 104
CORPUS CHRISTI MOSUNNY   90  73  57 E15       29.99F
DALLAS FTW     PTSUNNY   89  66  46 SE9       30.02F
DEL RIO        PTSUNNY   92  68  45 SE12G17   29.99F
EL PASO        MOSUNNY   91  31  11 VRB3      30.08F
HOUSTON INT    PTSUNNY   89  72  56 E12       30.01F
LUBBOCK        MOSUNNY   88  57  34 S14G21    30.09F
SAN ANGELO     SUNNY     89  66  46 VRB5      30.06F
SAN ANTONIO    PTSUNNY   91  64  40 E7        30.03F
WACO           SUNNY     89  66  46 S7        30.03F
WICHITA FALLS  PTSUNNY   79  71  76 SE6       30.01F
$$
...OTHER LOCATIONS IN NEW MEXICO...

CITY           SKY/WX    TMP DP  RH WIND       PRES   REMARKS
ALAMOGORDO     SUNNY     90  32  12 S10G18    30.11F
ALBUQUERQUE    MOSUNNY   82  26  13 VRB6G17   30.18F
CANNON AFB     SUNNY     83  48  28 SW6G17    30.14F
CLOVIS         SUNNY     84  56  38 SW13G20   30.13F
HOLLOMAN AFB   MOSUNNY   93  31  11 W8        30.12F
ROSWELL        SUNNY     87  52  29 SE7G18    30.08F
RUIDOSO        MOSUNNY   75  45  33 SE17G23   30.30F
SANTA FE       SUNNY     81  22  11 W14       30.23F
TRUTH OR CONSE SUNNY     91  13   5 S21G29    30.13F
TUCUMCARI      SUNNY     87  52  29 SW14      30.07F
$$



USA.gov is the U.S. government's official web portal to all federal, state and local government web resources and services.